Time,TemperatureF,DewpointF,PressureIn,WindDirection,WindDirectionDegrees,WindSpeedMPH,WindSpeedGustMPH,Humidity,HourlyPrecipIn,Conditions,Clouds,dailyrainin,SoftwareType,DateUTC
2013-03-06 00:01:00,33.0,13.0,-100.00,SSW,208,17.0,24.0,42,0.00,,,-99.99,,2013-03-06 00:01:00,
2013-03-06 00:11:00,33.0,12.0,-100.00,SSW,213,25.0,35.0,41,0.00,,,-99.99,,2013-03-06 00:11:00,
2013-03-06 00:21:00,33.0,12.0,-100.00,SSW,206,32.0,35.0,41,0.00,,,-99.99,,2013-03-06 00:21:00,
2013-03-06 00:32:00,33.0,12.0,-100.00,SSW,202,32.0,39.0,41,0.00,,,-99.99,,2013-03-06 00:32:00,
2013-03-06 00:41:00,33.0,13.0,-100.00,SSW,195,31.0,35.0,43,0.00,,,-99.99,,2013-03-06 00:41:00,
2013-03-06 00:51:00,31.0,14.0,-100.00,South,178,25.0,34.0,49,0.00,,,-99.99,,2013-03-06 00:51:00,
2013-03-06 01:01:00,30.0,14.0,-100.00,South,169,24.0,29.0,50,0.00,,,-99.99,,2013-03-06 01:01:00,
2013-03-06 01:11:00,31.0,13.0,-100.00,South,175,26.0,30.0,47,0.00,,,-99.99,,2013-03-06 01:11:00,
2013-03-06 01:21:00,28.0,15.0,-100.00,SSE,148,22.0,27.0,57,0.00,,,-99.99,,2013-03-06 01:21:00,
2013-03-06 01:31:00,28.0,14.0,-100.00,SSE,150,18.0,22.0,56,0.00,,,-99.99,,2013-03-06 01:31:00,
2013-03-06 01:41:00,31.0,13.0,-100.00,South,169,21.0,26.0,45,0.00,,,-99.99,,2013-03-06 01:41:00,
2013-03-06 01:51:00,31.0,12.0,-100.00,SSE,167,22.0,26.0,45,0.00,,,-99.99,,2013-03-06 01:51:00,
2013-03-06 02:01:00,31.0,10.0,-100.00,South,172,28.0,30.0,41,0.00,,,-99.99,,2013-03-06 02:01:00,
2013-03-06 02:11:00,32.0,12.0,-100.00,South,179,27.0,32.0,44,0.00,,,-99.99,,2013-03-06 02:11:00,
2013-03-06 02:21:00,32.0,11.0,-100.00,South,188,31.0,34.0,40,0.00,,,-99.99,,2013-03-06 02:21:00,
2013-03-06 02:31:00,32.0,13.0,-100.00,South,188,33.0,37.0,44,0.00,,,-99.99,,2013-03-06 02:31:00,
2013-03-06 02:41:00,33.0,13.0,-100.00,South,186,32.0,37.0,44,0.00,,,-99.99,,2013-03-06 02:41:00,
2013-03-06 02:51:00,32.0,13.0,-100.00,South,189,32.0,39.0,46,0.00,,,-99.99,,2013-03-06 02:51:00,
2013-03-06 03:01:00,32.0,14.0,-100.00,South,188,26.0,30.0,48,0.00,,,-99.99,,2013-03-06 03:01:00,
2013-03-06 03:11:00,31.0,13.0,-100.00,South,189,26.0,32.0,47,0.00,,,-99.99,,2013-03-06 03:11:00,
2013-03-06 03:21:00,33.0,14.0,-100.00,SSW,193,30.0,35.0,45,0.00,,,-99.99,,2013-03-06 03:21:00,
2013-03-06 03:31:00,32.0,14.0,-100.00,SSW,192,26.0,30.0,46,0.00,,,-99.99,,2013-03-06 03:31:00,
2013-03-06 03:41:00,32.0,14.0,-100.00,South,191,29.0,33.0,47,0.00,,,-99.99,,2013-03-06 03:41:00,
2013-03-06 03:52:00,31.0,13.0,-100.00,SSW,196,29.0,32.0,46,0.00,,,-99.99,,2013-03-06 03:52:00,
2013-03-06 04:01:00,31.0,14.0,-100.00,SSW,193,26.0,29.0,49,0.00,,,-99.99,,2013-03-06 04:01:00,
2013-03-06 04:11:00,30.0,14.0,-100.00,SSW,198,26.0,30.0,49,0.00,,,-99.99,,2013-03-06 04:11:00,
2013-03-06 04:21:00,31.0,14.0,-100.00,South,188,26.0,30.0,47,0.00,,,-99.99,,2013-03-06 04:21:00,
2013-03-06 04:31:00,34.0,12.0,-100.00,South,179,26.0,29.0,41,0.00,,,-99.99,,2013-03-06 04:31:00,
2013-03-06 04:41:00,34.0,11.0,-100.00,South,178,25.0,30.0,38,0.00,,,-99.99,,2013-03-06 04:41:00,
2013-03-06 04:51:00,32.0,12.0,-100.00,South,181,26.0,29.0,43,0.00,,,-99.99,,2013-03-06 04:51:00,
2013-03-06 05:01:00,32.0,11.0,-100.00,South,181,24.0,27.0,41,0.00,,,-99.99,,2013-03-06 05:01:00,
2013-03-06 05:11:00,33.0,12.0,-100.00,South,182,26.0,28.0,42,0.00,,,-99.99,,2013-03-06 05:11:00,
2013-03-06 05:22:00,32.0,12.0,-100.00,SSW,193,27.0,30.0,43,0.00,,,-99.99,,2013-03-06 05:22:00,
2013-03-06 05:32:00,33.0,11.0,-100.00,SSW,196,26.0,29.0,41,0.00,,,-99.99,,2013-03-06 05:32:00,
2013-03-06 05:41:00,34.0,11.0,-100.00,SSW,193,28.0,30.0,37,0.00,,,-99.99,,2013-03-06 05:41:00,
2013-03-06 05:52:00,33.0,10.0,-100.00,SSW,192,27.0,29.0,38,0.00,,,-99.99,,2013-03-06 05:52:00,
2013-03-06 06:01:00,34.0,10.0,-100.00,SSW,198,27.0,29.0,36,0.00,,,-99.99,,2013-03-06 06:01:00,
2013-03-06 06:11:00,35.0,7.0,-100.00,SSW,199,26.0,29.0,31,0.00,,,-99.99,,2013-03-06 06:11:00,
2013-03-06 06:21:00,35.0,7.0,-100.00,SSW,196,23.0,28.0,31,0.00,,,-99.99,,2013-03-06 06:21:00,
2013-03-06 06:31:00,35.0,7.0,-100.00,SSW,199,25.0,29.0,31,0.00,,,-99.99,,2013-03-06 06:31:00,
2013-03-06 06:41:00,34.0,7.0,-100.00,SSW,199,24.0,27.0,31,0.00,,,-99.99,,2013-03-06 06:41:00,
2013-03-06 06:52:00,35.0,6.0,-100.00,SSW,202,22.0,29.0,29,0.00,,,-99.99,,2013-03-06 06:52:00,
2013-03-06 07:01:00,35.0,5.0,-100.00,SSW,205,22.0,26.0,29,0.00,,,-99.99,,2013-03-06 07:01:00,
2013-03-06 07:11:00,35.0,6.0,-100.00,SSW,209,21.0,28.0,30,0.00,,,-99.99,,2013-03-06 07:11:00,
2013-03-06 07:21:00,35.0,6.0,-100.00,SSW,203,25.0,29.0,30,0.00,,,-99.99,,2013-03-06 07:21:00,
2013-03-06 07:31:00,34.0,6.0,-100.00,SSW,206,24.0,27.0,31,0.00,,,-99.99,,2013-03-06 07:31:00,
2013-03-06 07:41:00,33.0,7.0,-100.00,SSW,208,24.0,27.0,32,0.00,,,-99.99,,2013-03-06 07:41:00,
2013-03-06 07:52:00,33.0,7.0,-100.00,SSW,210,26.0,28.0,33,0.00,,,-99.99,,2013-03-06 07:52:00,
2013-03-06 08:01:00,33.0,7.0,-100.00,SSW,209,27.0,31.0,33,0.00,,,-99.99,,2013-03-06 08:01:00,
2013-03-06 08:11:00,33.0,7.0,-100.00,SSW,210,28.0,31.0,33,0.00,,,-99.99,,2013-03-06 08:11:00,
2013-03-06 08:21:00,32.0,7.0,-100.00,SSW,212,29.0,32.0,34,0.00,,,-99.99,,2013-03-06 08:21:00,
2013-03-06 08:31:00,32.0,7.0,-100.00,SSW,206,30.0,32.0,34,0.00,,,-99.99,,2013-03-06 08:31:00,
2013-03-06 08:41:00,33.0,6.0,-100.00,SSW,202,29.0,32.0,33,0.00,,,-99.99,,2013-03-06 08:41:00,
2013-03-06 08:52:00,32.0,7.0,-100.00,SSW,203,26.0,29.0,34,0.00,,,-99.99,,2013-03-06 08:52:00,
2013-03-06 09:01:00,33.0,6.0,-100.00,SSW,200,24.0,27.0,31,0.00,,,-99.99,,2013-03-06 09:01:00,
2013-03-06 09:12:00,33.0,7.0,-100.00,SSW,205,16.0,19.0,34,0.00,,,-99.99,,2013-03-06 09:12:00,
2013-03-06 09:21:00,32.0,6.0,-100.00,SSW,203,22.0,24.0,34,0.00,,,-99.99,,2013-03-06 09:21:00,
2013-03-06 09:31:00,32.0,6.0,-100.00,SSW,205,24.0,27.0,34,0.00,,,-99.99,,2013-03-06 09:31:00,
2013-03-06 09:41:00,32.0,7.0,-100.00,SSW,208,26.0,29.0,34,0.00,,,-99.99,,2013-03-06 09:41:00,
2013-03-06 09:51:00,32.0,7.0,-100.00,SSW,206,26.0,27.0,33,0.00,,,-99.99,,2013-03-06 09:51:00,
2013-03-06 10:01:00,32.0,7.0,-100.00,SSW,203,26.0,29.0,33,0.00,,,-99.99,,2013-03-06 10:01:00,
2013-03-06 10:11:00,32.0,7.0,-100.00,SSW,202,28.0,30.0,33,0.00,,,-99.99,,2013-03-06 10:11:00,
2013-03-06 10:21:00,33.0,7.0,-100.00,South,189,28.0,30.0,33,0.00,,,-99.99,,2013-03-06 10:21:00,
2013-03-06 10:31:00,33.0,7.0,-100.00,South,189,28.0,29.0,33,0.00,,,-99.99,,2013-03-06 10:31:00,
2013-03-06 10:41:00,33.0,7.0,-100.00,South,189,28.0,30.0,33,0.00,,,-99.99,,2013-03-06 10:41:00,
2013-03-06 10:51:00,34.0,7.0,-100.00,South,191,31.0,33.0,31,0.00,,,-99.99,,2013-03-06 10:51:00,
2013-03-06 11:01:00,34.0,7.0,-100.00,SSW,192,28.0,30.0,31,0.00,,,-99.99,,2013-03-06 11:01:00,
2013-03-06 11:11:00,34.0,7.0,-100.00,South,189,29.0,31.0,32,0.00,,,-99.99,,2013-03-06 11:11:00,
2013-03-06 11:22:00,34.0,7.0,-100.00,South,191,32.0,34.0,31,0.00,,,-99.99,,2013-03-06 11:22:00,
2013-03-06 11:31:00,35.0,7.0,-100.00,South,189,30.0,32.0,31,0.00,,,-99.99,,2013-03-06 11:31:00,
2013-03-06 11:42:00,33.0,8.0,-100.00,South,186,26.0,29.0,34,0.00,,,-99.99,,2013-03-06 11:42:00,
2013-03-06 11:52:00,33.0,8.0,-100.00,South,185,16.0,18.0,34,0.00,,,-99.99,,2013-03-06 11:52:00,
2013-03-06 12:01:00,30.0,8.0,-100.00,SSW,206,21.0,25.0,38,0.00,,,-99.99,,2013-03-06 12:01:00,
2013-03-06 12:11:00,30.0,7.0,-100.00,SSW,210,20.0,23.0,38,0.00,,,-99.99,,2013-03-06 12:11:00,
2013-03-06 12:21:00,30.0,9.0,-100.00,SSW,210,20.0,25.0,41,0.00,,,-99.99,,2013-03-06 12:21:00,
2013-03-06 12:32:00,29.0,8.0,-100.00,SSW,205,26.0,28.0,42,0.00,,,-99.99,,2013-03-06 12:32:00,
2013-03-06 12:42:00,30.0,8.0,-100.00,SSW,206,24.0,27.0,40,0.00,,,-99.99,,2013-03-06 12:42:00,
2013-03-06 12:52:00,32.0,8.0,-100.00,SSW,202,27.0,29.0,35,0.00,,,-99.99,,2013-03-06 12:52:00,
2013-03-06 13:01:00,32.0,6.0,-100.00,SSW,200,26.0,27.0,33,0.00,,,-99.99,,2013-03-06 13:01:00,
2013-03-06 13:11:00,32.0,6.0,-100.00,SSW,199,26.0,28.0,34,0.00,,,-99.99,,2013-03-06 13:11:00,
2013-03-06 13:21:00,33.0,7.0,-100.00,South,185,21.0,24.0,33,0.00,,,-99.99,,2013-03-06 13:21:00,
2013-03-06 13:31:00,33.0,6.0,-100.00,South,176,19.0,23.0,31,0.00,,,-99.99,,2013-03-06 13:31:00,
2013-03-06 13:41:00,33.0,7.0,-100.00,SSW,192,21.0,24.0,32,0.00,,,-99.99,,2013-03-06 13:41:00,
2013-03-06 13:51:00,34.0,6.0,-100.00,SSW,209,25.0,27.0,31,0.00,,,-99.99,,2013-03-06 13:51:00,
2013-03-06 14:01:00,34.0,7.0,-100.00,SSW,212,24.0,27.0,32,0.00,,,-99.99,,2013-03-06 14:01:00,
2013-03-06 14:11:00,34.0,7.0,-100.00,SSW,210,24.0,26.0,32,0.00,,,-99.99,,2013-03-06 14:11:00,
2013-03-06 14:21:00,34.0,8.0,-100.00,SSW,206,26.0,28.0,32,0.00,,,-99.99,,2013-03-06 14:21:00,
2013-03-06 14:32:00,34.0,8.0,-100.00,SSW,209,24.0,28.0,33,0.00,,,-99.99,,2013-03-06 14:32:00,
2013-03-06 14:41:00,34.0,8.0,-100.00,SSW,210,26.0,29.0,33,0.00,,,-99.99,,2013-03-06 14:41:00,
2013-03-06 14:52:00,35.0,8.0,-100.00,SSW,208,28.0,31.0,32,0.00,,,-99.99,,2013-03-06 14:52:00,
2013-03-06 15:01:00,35.0,8.0,-100.00,SSW,210,28.0,32.0,32,0.00,,,-99.99,,2013-03-06 15:01:00,
2013-03-06 15:11:00,35.0,9.0,-100.00,SSW,208,26.0,29.0,32,0.00,,,-99.99,,2013-03-06 15:11:00,
2013-03-06 15:21:00,36.0,10.0,-100.00,SSW,206,25.0,27.0,33,0.00,,,-99.99,,2013-03-06 15:21:00,
2013-03-06 15:32:00,36.0,10.0,-100.00,SSW,208,21.0,26.0,33,0.00,,,-99.99,,2013-03-06 15:32:00,
2013-03-06 15:41:00,37.0,11.0,-100.00,SSW,202,21.0,24.0,33,0.00,,,-99.99,,2013-03-06 15:41:00,
2013-03-06 15:51:00,37.0,11.0,-100.00,SSW,192,20.0,22.0,34,0.00,,,-99.99,,2013-03-06 15:51:00,
2013-03-06 16:01:00,37.0,11.0,-100.00,SSW,196,21.0,23.0,34,0.00,,,-99.99,,2013-03-06 16:01:00,
2013-03-06 16:11:00,36.0,15.0,-100.00,South,178,18.0,20.0,41,0.00,,,-99.99,,2013-03-06 16:11:00,
2013-03-06 16:21:00,35.0,12.0,-100.00,South,182,23.0,26.0,37,0.00,,,-99.99,,2013-03-06 16:21:00,
2013-03-06 16:32:00,34.0,12.0,-100.00,South,175,27.0,29.0,39,0.00,,,-99.99,,2013-03-06 16:32:00,
2013-03-06 16:41:00,32.0,10.0,-100.00,South,171,30.0,32.0,39,0.00,,,-99.99,,2013-03-06 16:41:00,
2013-03-06 16:51:00,32.0,11.0,-100.00,SSE,168,32.0,33.0,42,0.00,,,-99.99,,2013-03-06 16:51:00,
2013-03-06 17:01:00,31.0,13.0,-100.00,SSE,168,29.0,31.0,45,0.00,,,-99.99,,2013-03-06 17:01:00,
2013-03-06 17:11:00,31.0,13.0,-100.00,SSE,167,28.0,31.0,46,0.00,,,-99.99,,2013-03-06 17:11:00,
2013-03-06 17:21:00,33.0,15.0,-100.00,South,174,23.0,26.0,48,0.00,,,-99.99,,2013-03-06 17:21:00,
2013-03-06 17:31:00,32.0,15.0,-100.00,SSE,167,24.0,27.0,51,0.00,,,-99.99,,2013-03-06 17:31:00,
2013-03-06 17:41:00,32.0,16.0,-100.00,SSE,158,21.0,23.0,53,0.00,,,-99.99,,2013-03-06 17:41:00,
2013-03-06 17:52:00,31.0,18.0,-100.00,SSE,150,21.0,24.0,58,0.00,,,-99.99,,2013-03-06 17:52:00,
2013-03-06 18:01:00,32.0,18.0,-100.00,SSE,148,21.0,24.0,57,0.00,,,-99.99,,2013-03-06 18:01:00,
2013-03-06 18:28:00,35.0,19.0,-100.00,SSE,161,18.0,21.0,50,0.00,,,-99.99,,2013-03-06 18:28:00,
2013-03-06 18:41:00,40.0,19.0,-100.00,SW,219,22.0,27.0,43,0.00,,,-99.99,,2013-03-06 18:41:00,
2013-03-06 18:52:00,41.0,17.0,-100.00,SW,226,27.0,33.0,37,0.00,,,-99.99,,2013-03-06 18:52:00,
2013-03-06 19:02:00,41.0,18.0,-100.00,SW,230,23.0,28.0,39,0.00,,,-99.99,,2013-03-06 19:02:00,
2013-03-06 19:11:00,41.0,17.0,-100.00,SW,229,23.0,29.0,38,0.00,,,-99.99,,2013-03-06 19:11:00,
2013-03-06 19:21:00,42.0,19.0,-100.00,SW,236,21.0,29.0,40,0.00,,,-99.99,,2013-03-06 19:21:00,
2013-03-06 19:31:00,42.0,18.0,-100.00,SW,230,21.0,35.0,38,0.00,,,-99.99,,2013-03-06 19:31:00,
2013-03-06 19:42:00,42.0,20.0,-100.00,SW,234,23.0,32.0,41,0.00,,,-99.99,,2013-03-06 19:42:00,
2013-03-06 19:52:00,42.0,19.0,-100.00,SW,224,27.0,34.0,39,0.00,,,-99.99,,2013-03-06 19:52:00,
2013-03-06 20:01:00,43.0,21.0,-100.00,SW,230,21.0,26.0,42,0.00,,,-99.99,,2013-03-06 20:01:00,
2013-03-06 20:11:00,43.0,21.0,-100.00,SW,224,22.0,26.0,42,0.00,,,-99.99,,2013-03-06 20:11:00,
2013-03-06 20:21:00,43.0,21.0,-100.00,SW,217,25.0,31.0,41,0.00,,,-99.99,,2013-03-06 20:21:00,
2013-03-06 20:31:00,43.0,20.0,-100.00,SW,219,26.0,30.0,39,0.00,,,-99.99,,2013-03-06 20:31:00,
2013-03-06 20:41:00,43.0,20.0,-100.00,SW,220,32.0,38.0,39,0.00,,,-99.99,,2013-03-06 20:41:00,
2013-03-06 20:52:00,43.0,20.0,-100.00,SW,215,34.0,40.0,39,0.00,,,-99.99,,2013-03-06 20:52:00,
2013-03-06 21:01:00,43.0,19.0,-100.00,SW,215,32.0,39.0,38,0.00,,,-99.99,,2013-03-06 21:01:00,
2013-03-06 21:11:00,44.0,21.0,-100.00,SW,216,27.0,32.0,41,0.00,,,-99.99,,2013-03-06 21:11:00,
2013-03-06 21:21:00,44.0,22.0,-100.00,WSW,243,16.0,24.0,41,0.00,,,-99.99,,2013-03-06 21:21:00,
2013-03-06 21:31:00,44.0,21.0,-100.00,SW,223,29.0,34.0,39,0.00,,,-99.99,,2013-03-06 21:31:00,
2013-03-06 21:41:00,44.0,19.0,-100.00,SW,220,32.0,39.0,36,0.00,,,-99.99,,2013-03-06 21:41:00,
2013-03-06 21:51:00,44.0,19.0,-100.00,SW,220,32.0,36.0,37,0.00,,,-99.99,,2013-03-06 21:51:00,
2013-03-06 22:01:00,44.0,20.0,-100.00,WSW,237,22.0,31.0,38,0.00,,,-99.99,,2013-03-06 22:01:00,
2013-03-06 22:11:00,44.0,20.0,-100.00,SW,232,25.0,37.0,37,0.00,,,-99.99,,2013-03-06 22:11:00,
2013-03-06 22:21:00,44.0,20.0,-100.00,SW,230,27.0,35.0,37,0.00,,,-99.99,,2013-03-06 22:21:00,
2013-03-06 22:31:00,45.0,20.0,-100.00,SW,236,26.0,32.0,36,0.00,,,-99.99,,2013-03-06 22:31:00,
2013-03-06 22:41:00,45.0,21.0,-100.00,SW,230,16.0,31.0,39,0.00,,,-99.99,,2013-03-06 22:41:00,
2013-03-06 22:51:00,45.0,20.0,-100.00,SW,219,26.0,32.0,37,0.00,,,-99.99,,2013-03-06 22:51:00,
2013-03-06 23:01:00,45.0,20.0,-100.00,SW,216,37.0,41.0,36,0.00,,,-99.99,,2013-03-06 23:01:00,
2013-03-06 23:11:00,45.0,21.0,-100.00,WSW,244,14.0,26.0,38,0.00,,,-99.99,,2013-03-06 23:11:00,
2013-03-06 23:21:00,45.0,20.0,-100.00,WSW,244,21.0,41.0,37,0.00,,,-99.99,,2013-03-06 23:21:00,
2013-03-06 23:31:00,44.0,20.0,-100.00,WSW,247,19.0,32.0,38,0.00,,,-99.99,,2013-03-06 23:31:00,
2013-03-06 23:41:00,44.0,21.0,-100.00,WSW,246,20.0,29.0,39,0.00,,,-99.99,,2013-03-06 23:41:00,
2013-03-06 23:52:00,44.0,20.0,-100.00,West,277,16.0,32.0,38,0.00,,,-99.99,,2013-03-06 23:52:00,